Вернуться в каталог

OPS 0856 DEB

LostPO
NORAD 24959·DEBRIS·🇺🇸 United States

Запущен Aug 19, 1966 с Vandenberg Space Force Base

Loading…

Ближайшие Пролёты (ближайшие 24 часа)

TLE

УстаревшееSource: Space-Track

Эпоха: Jul 17, 2026, 19:56 UTC

1 24959U 66077R   26198.83063485 -.00004986  00000-0 -92725+0 0  9991
2 24959  88.1419 145.1308 1062210 303.0441  71.5529  8.96514096181930

Отслеживайте OPS 0856 DEB в реальном времени с AllMySat

Download on the App Store